User: anonymous   Login
Location: Unspecified
(0.0000°N, 0.0000°E)
Time: 17:20:02
(UTC+00:00)
Language:

LIBERTAD 1 - Orbit

View from above orbital plane
View from above orbital plane
View from above satellite
View from above satellite

Ground track
Ground track

The orbit data is extracted from the following two-line orbital elements,

1 31128U 07012M   18145.40892974  .00000095  00000-0  30931-4 0  9991
2 31128  98.1235  89.0742 0095660 218.6994 140.7325 14.55984329589228
Epoch (UTC): 25 May 2018 09:48:51
Eccentricity: 0.0095660
inclination: 98.1235°
perigee height: 638 km
apogee height: 774 km
right ascension of ascending node: 89.0742°
argument of perigee: 218.6994°
revolutions per day: 14.55984329
mean anomaly at epoch: 140.7325°
orbit number at epoch: 58922

The dashed part of the orbit path shows where the satellite is in the earth's shadow,  

DLR